This is the latest recevied weather packets stored in our database for station/object KW4UJ. If no packets are shown the sender has not sent any weather packets the latest 10 day(s).
| Time | Temp. | Humidity | Pressure | Rain* | Wind** | Luminosity | Snow |
|---|---|---|---|---|---|---|---|
| 1777763815 | 13.33° C | 45% | 1011.9 hPa | 0 mm | - | 35 W/m² | - |
| 1777763513 | 12.78° C | 44% | 1011.8 hPa | 0 mm | - | 36 W/m² | - |
| 1777763211 | 12.78° C | 44% | 1011.9 hPa | 0 mm | - | 34 W/m² | - |
| 1777762910 | 12.78° C | 44% | 1011.8 hPa | 0 mm | - | 32 W/m² | - |
| 1777762605 | 13.33° C | 45% | 1011.9 hPa | 0 mm | - | 29 W/m² | - |
| 1777762302 | 13.33° C | 44% | 1011.7 hPa | 0 mm | - | 35 W/m² | - |
| 1777761998 | 13.33° C | 43% | 1012 hPa | 0 mm | - | 41 W/m² | - |
| 1777761695 | 13.33° C | 43% | 1011.8 hPa | 0 mm | - | 45 W/m² | - |
| 1777761393 | 13.33° C | 43% | 1011.8 hPa | 0 mm | - | 53 W/m² | - |
| 1777761091 | 13.33° C | 43% | 1011.8 hPa | 0 mm | - | 54 W/m² | - |
| 1777760788 | 13.33° C | 43% | 1011.9 hPa | 0 mm | - | 53 W/m² | - |
| 1777760485 | 13.89° C | 42% | 1011.9 hPa | 0 mm | - | 59 W/m² | - |
| 1777760180 | 13.89° C | 43% | 1011.6 hPa | 0 mm | - | 67 W/m² | - |
| 1777759878 | 13.89° C | 46% | 1011.9 hPa | 0 mm | - | 86 W/m² | - |
| 1777759574 | 13.89° C | 43% | 1011.9 hPa | 0 mm | - | 78 W/m² | - |
| 1777759270 | 13.89° C | 42% | 1012 hPa | 0 mm | - | 96 W/m² | - |
| 1777758967 | 14.44° C | 42% | 1011.9 hPa | 0 mm | - | 112 W/m² | - |
| 1777758664 | 13.89° C | 42% | 1011.8 hPa | 0 mm | - | 171 W/m² | - |
| 1777758361 | 13.89° C | 43% | 1011.7 hPa | 0 mm | - | 132 W/m² | - |
| 1777758059 | 14.44° C | 41% | 1011.9 hPa | 0 mm | - | 131 W/m² | - |
| 1777757755 | 14.44° C | 40% | 1011.7 hPa | 0 mm | - | 101 W/m² | - |
| 1777757453 | 14.44° C | 41% | 1011.8 hPa | 0 mm | - | 190 W/m² | - |
| 1777757152 | 14.44° C | 40% | 1011.5 hPa | 0 mm | - | 270 W/m² | - |
| 1777756849 | 14.44° C | 40% | 1011.7 hPa | 0 mm | - | 200 W/m² | - |
| 1777756544 | 14.44° C | 40% | 1011.8 hPa | 0 mm | - | 144 W/m² | - |
* Rain latest hour (hover to see other rain measurements)
** Current wind speed in m/s (hover to see current wind gust speed)